SCP
0 0 0 0 0 0 0 0 -0 -0 0 0 0 0 0 0 0 0 0 0 0 0 0 0 0 0 0 0 0 0 0 0 0 0 0 0 0 0 0 0 0 0 0
0 0 0 0 0 0 0 0 0 -0 0 0 0 0 0 0 0 0 0 0 0 0 0 0 0 0 0 0 0 0 0 0 0 0 0 0 0 0 0 0 0 0 0
0 0 0 0 -0 0 0 0 0 0 0 0 0 0 0 0 0 0 0 0 0 0 0 0 0 0 0 0 0 0 0 0 0 0 0 0 0 0 0 0 0 0 0
0 0 0 -0 0 0 0 0 0 0 -0 0 0 0 0 0 0 0 0 0 0 0 0 0 0 0 0 0 0 0 0 0 0 0 0 0 0 0 0 0 0 0 0
0 0 0 0 0 0 0 0 0 0 -0 -0 -0 0 0 0 0 0 0 0 0 0 0 0 0 0 0 0 0 0 0 0 0 0 0 0 0 0 0 0 0 0 0
-0 0 0 0 0 0 0 0 0 0 0 0 -0 -0 0 0 0 0 0 0 0 0 0 0 0 0 0 0 0 0 0 0 0 0 0 0 0 0 0 0 0 0 0
-0 -0 0 0 0 0 0 0 0 0 0 0 0 0 0 0 0 0 0 0 0 0 0 0 0 0 0 0 0 0 0 0 0 0 0 0 0 0 0 0 -0 0 0
-0 -0 0 0 0 0 0 0 0 0 0 0 0 0 0 0 0 0 0 0 0 0 0 0 0 0 0 0 0 0 0 0 0 0 0 0 0 0 -0 -0 0 0 0
-0 -0 -0 0 0 0 0 0 0 0 0 0 0 0 0 0 0 0 0 0 0 0 0 0 0 0 0 0 0 0 0 0 0 0 0 -0 -0 0 -0 0 0 0 0
-0 -0 -0 -0 0 0 0 0 0 0 0 0 0 0 0 0 0 0 0 0 0 0 0 -0 -0 0 0 0 0 0 0 0 0 0 0 -0 -0 -0 0 0 0 0 0
-0 -0 -0 -0 -0 0 0 0 0 0 0 0 0 0 0 0 0 0 0 0 0 0 -0 -0 0 0 0 0 0 0 0 -0 0 0 -0 -0 -0 0 0 0 0 0 0
-0 -0 -0 -0 -0 -0 -0 0 0 0 0 0 0 -0 -0 -0 -0 0 0 -0 -0 -0 -0 -0 -0 0 0 -0 0 0 0 -0 -0 -0 -0 0 0 0 0 0 0 0 0
-0 -0 -0 -0 0 -0 -0 0 0 0 0 0 0 0 -0 -0 -0 -0 -0 0 -0 -0 -0 -0 0 0 0 0 0 0 -0 -0 0 0 0 0 0 0 0 0 0 0 0
-0 -0 -0 -0 0 0 0 0 0 0 0 0 0 -0 -0 -0 -0 -0 -0 -0 -0 -0 0 0 0 0 0 0 -0 0 0 0 0 0 0 0 0 0 0 0 0 0 0
-0 -0 0 -0 -0 0 0 0 0 0 0 0 0 -0 0 -0 -0 0 0 0 0 0 -0 0 -0 -0 0 0 0 0 0 0 0 0 0 0 0 0 0 0 0 0 0
0 0 0 0 0 0 0 0 0 0 -0 -0 -0 -0 0 -0 -0 -0 -0 0 -0 -0 0 -0 -0 -0 0 0 0 0 0 0 0 0 0 0 0 0 0 0 0 0 0
0 0 0 0 0 0 0 0 0 0 -0 0 0 -0 -0 -0 -0 -0 -0 -0 -0 0 -0 0 0 0 0 0 0 0 0 0 0 0 0 0 0 0 0 0 0 0 0
0 0 0 0 0 0 0 0 0 0 0 -0 -0 -0 -0 -0 0 -0 -0 -0 0 0 0 0 0 0 0 0 0 0 0 0 0 0 0 0 0 0 0 0 0 0 0
0 0 0 0 0 0 0 0 0 0 0 0 0 0 0 0 -0 0 -0 0 0 0 0 0 0 0 0 0 0 0 0 0 0 0 0 0 0 0 0 0 0 0 0
0 0 0 0 0 0 0 0 0 0 0 0 0 0 0 0 0 0 0 0 0 0 0 0 0 0 0 0 0 0 0 0 0 0 0 0 0 0 0 0 0 0 0
0 0 0 0 0 0 0 0 0 0 0 0 0 0 0 0 0 0 0 0 0 0 0 0 0 0 0 0 0 0 0 0 0 0 0 0 0 0 0 0 0 0 0
0 0 0 0 0 0 0 0 0 0 0 0 0 0 0 0 0 0 0 0 0 0 0 0 0 0 0 0 0 0 0 0 0 0 0 0 0 0 0 0 0 0 0
0 0 0 0 0 0 0 0 0 0 0 0 0 0 0 0 0 0 0 0 0 0 0 0 0 0 0 0 0 0 0 0 0 0 0 0 0 0 0 0 0 0 0
0 0 0 0 0 0 0 0 0 0 0 0 0 0 0 0 0 0 0 0 0 0 0 0 0 0 0 0 0 0 0 0 0 0 0 0 0 0 0 0 0 0 0
0 0 0 0 0 0 0 0 0 0 0 0 0 0 0 0 0 0 0 0 0 0 0 0 0 0 0 0 0 0 0 0 0 0 0 0 0 0 0 0 0 0 0
0 0 0 0 0 0 0 0 0 0 0 0 0 0 0 0 0 0 0 0 0 0 0 0 0 0 0 0 0 0 0 0 0 0 0 0 0 0 0 0 0 0 0
Wind_Speed_500mb
5 4 5 8 13 17 9 10 17 15 11 13 17 22 27 28 29 28 27 26 27 29 25 23 21 24 34 36 26 33 34 34 38 27 37 48 64 47 62 45 36 24 16
6 6 4 7 13 16 12 10 14 16 15 15 16 18 24 27 27 26 26 26 32 26 23 24 28 25 32 32 28 30 31 32 27 42 39 52 62 56 52 44 25 14 2
10 9 8 7 12 22 24 16 16 16 15 16 18 18 22 26 27 25 21 25 27 21 21 21 25 30 33 29 34 30 31 31 30 39 58 61 61 62 48 31 22 16 13
13 11 10 9 12 15 26 23 21 19 17 18 19 18 19 22 24 26 19 27 29 21 20 25 26 27 29 31 30 30 31 31 38 39 42 44 41 51 39 29 27 17 10
17 14 13 13 17 16 15 17 18 21 21 22 20 21 18 19 20 25 27 34 22 19 21 31 35 32 31 35 37 33 44 50 40 39 37 35 38 40 36 28 23 16 10
24 18 16 18 24 20 16 17 17 17 19 18 23 14 15 19 20 23 39 36 22 23 31 40 37 38 37 44 39 36 44 41 37 32 28 30 33 33 27 20 23 18 8
31 24 17 27 27 23 18 17 17 17 16 17 22 15 14 20 30 23 44 33 31 27 37 31 44 38 46 48 40 37 32 26 20 14 22 25 24 22 22 19 17 11 7
39 32 24 31 29 26 22 19 16 15 15 16 15 15 19 20 30 34 41 41 31 31 34 46 48 37 40 40 38 39 29 25 28 33 33 31 25 22 21 17 12 9 8
45 38 32 28 35 31 25 21 16 12 16 20 20 21 22 31 31 32 41 42 35 35 47 41 41 40 33 30 26 29 32 27 24 21 21 18 16 17 13 11 6 7 9
48 39 35 28 40 36 29 24 18 13 13 17 19 21 22 20 26 29 31 37 46 42 49 47 43 26 19 25 25 26 24 27 25 22 23 18 12 7 4 2 5 9 11
44 41 37 31 40 41 36 30 26 20 14 18 18 19 19 21 22 27 29 37 47 50 43 47 35 26 24 25 23 18 13 13 14 13 10 12 7 3 3 3 7 11 11
51 45 42 38 40 43 41 38 32 26 20 22 25 23 21 22 26 30 31 34 48 43 39 38 35 31 27 25 25 22 21 19 18 17 16 13 11 12 14 14 12 12 11
57 50 46 44 38 44 44 45 41 34 30 30 29 30 29 26 25 28 30 30 30 29 31 35 34 30 28 26 23 22 22 24 23 21 19 16 16 18 18 17 15 10 5
59 54 49 50 48 44 43 44 45 43 38 38 38 33 31 33 32 32 33 34 32 32 34 35 33 31 31 30 31 32 29 26 25 23 20 22 23 24 20 17 16 11 9
62 58 53 53 55 50 45 43 41 43 40 43 44 39 38 36 37 37 36 37 37 37 37 39 41 42 41 40 38 35 33 31 30 29 27 27 28 23 20 17 18 15 12
70 65 59 57 60 59 53 49 46 35 37 36 37 37 35 28 24 34 40 39 37 40 45 46 47 46 44 44 44 41 40 38 37 34 33 33 32 29 27 28 27 18 16
73 68 64 61 60 62 62 56 50 42 39 38 39 43 41 34 32 33 40 46 47 45 53 51 52 54 54 53 53 50 46 44 43 39 39 41 41 35 31 29 29 27 26
74 67 64 64 62 62 63 59 54 47 46 47 48 51 49 43 40 36 40 48 60 61 59 57 57 58 58 56 55 53 51 51 48 44 46 48 45 36 38 36 39 33 26
80 75 71 65 62 61 62 64 60 56 50 45 45 52 55 53 49 51 51 54 59 66 63 63 61 60 59 56 55 55 54 54 51 49 48 50 47 45 43 39 39 34 28
81 75 73 72 69 66 65 68 68 64 58 52 47 48 54 62 65 68 67 64 64 64 67 68 69 67 66 63 60 59 61 62 60 59 57 55 51 48 40 40 40 31 25
79 80 79 77 75 71 68 67 67 68 65 60 51 46 51 60 70 76 76 74 73 71 68 72 76 75 72 70 67 64 64 67 68 69 67 65 62 56 45 49 44 35 30
72 72 76 78 77 77 75 70 67 66 66 65 56 49 49 59 64 72 77 78 76 74 71 69 70 75 77 81 80 76 71 65 77 79 74 69 63 55 56 50 32 34 27
67 67 70 73 73 74 74 70 67 66 67 66 62 57 56 57 62 66 70 76 80 78 74 73 75 74 75 81 85 74 79 74 79 78 77 72 65 59 54 40 38 36 27
57 61 64 64 64 65 68 69 68 67 66 65 65 63 59 59 62 61 61 64 68 73 80 83 81 80 80 83 80 79 83 85 73 80 83 74 68 59 43 38 42 35 25
61 62 64 62 61 58 61 64 65 67 70 72 71 70 65 61 63 62 64 65 66 69 74 78 81 82 84 87 89 95 96 89 73 79 82 73 67 56 42 46 43 33 24
47 51 61 68 67 65 65 61 59 60 61 61 64 67 68 63 61 60 65 65 63 65 67 72 77 80 82 88 96 95 84 78 71 75 79 76 71 55 56 50 43 32 24
Wind_Direction_500mb
171 138 68 43 40 38 62 78 80 94 102 122 139 166 174 173 171 171 173 181 187 187 199 207 201 201 200 213 206 211 205 197 171 148 166 172 169 175 163 162 162 163 173
173 171 135 73 64 41 73 102 91 96 102 122 144 152 167 172 170 176 176 176 173 180 194 202 201 196 194 196 196 195 200 195 180 171 169 165 176 171 164 165 165 174 162
176 171 159 108 82 69 73 96 105 105 113 122 124 144 157 161 164 171 174 177 181 185 180 185 187 179 177 180 175 187 182 171 183 181 167 165 178 172 178 191 200 218 269
171 165 164 142 130 98 84 89 98 97 103 127 131 132 154 162 162 164 165 160 155 172 191 191 186 182 184 174 179 191 189 167 156 150 159 158 158 170 185 198 214 237 232
177 173 167 164 149 135 107 93 94 85 89 116 135 143 139 162 163 171 166 152 146 146 151 162 156 157 161 160 153 137 144 144 149 147 151 163 178 187 193 198 206 214 205
189 177 166 169 155 145 135 118 104 90 73 96 125 142 170 170 168 181 173 174 155 130 141 149 154 152 152 146 157 146 141 147 144 148 149 158 163 171 176 182 182 190 192
193 183 170 172 161 154 151 127 109 95 78 90 120 116 126 166 170 151 172 170 162 143 146 139 142 128 127 131 136 138 138 140 152 147 155 167 163 162 161 158 161 160 187
194 190 181 181 176 171 168 151 128 98 96 106 124 98 109 117 164 164 159 165 152 137 139 144 143 135 136 139 144 136 143 141 126 110 112 118 128 135 133 144 157 197 269
196 194 188 186 185 180 175 166 149 122 112 114 104 112 123 109 125 171 191 192 178 165 168 161 155 141 134 138 137 143 141 130 127 136 139 139 143 163 172 185 208 265 279
198 194 191 189 190 183 185 181 169 147 130 136 122 111 116 129 123 119 133 162 173 172 167 157 156 160 155 149 142 148 141 133 127 135 145 155 168 186 182 323 320 312 307
195 195 188 192 192 192 193 193 184 177 163 162 158 141 127 124 135 141 144 157 160 161 173 179 178 170 166 167 160 148 149 161 169 169 174 198 205 223 238 285 283 281 268
196 194 189 191 190 192 197 196 197 197 189 173 176 166 156 150 141 135 138 154 165 164 166 167 171 172 174 176 179 187 196 207 215 211 205 202 217 247 264 276 278 264 256
197 195 191 194 189 190 194 197 198 204 206 191 181 183 179 171 164 162 155 155 163 176 176 174 176 179 180 184 189 196 199 205 203 204 213 230 244 248 243 235 237 249 268
198 196 193 196 197 193 195 201 204 205 208 206 196 190 190 192 189 184 181 180 178 177 181 182 186 193 197 195 192 194 197 201 214 228 243 244 229 214 219 242 256 225 220
200 198 194 197 204 203 204 203 208 216 217 211 207 203 200 203 205 202 196 192 192 194 195 198 201 203 202 199 198 202 209 219 232 241 242 231 216 211 221 234 234 227 214
202 201 200 199 207 210 211 211 215 217 220 224 225 216 212 216 214 214 210 207 209 209 209 211 211 210 209 207 208 212 219 229 240 245 239 230 222 217 222 215 213 201 199
207 204 204 204 209 215 216 216 215 213 213 217 220 222 221 215 212 215 214 212 213 215 216 217 216 214 212 213 217 223 230 238 242 237 228 223 216 222 219 212 208 200 185
213 213 208 207 208 216 221 222 221 219 214 215 214 217 221 222 219 219 215 216 216 217 218 219 219 218 219 221 224 229 235 238 241 230 225 222 222 227 222 217 201 195 195
215 215 214 214 214 216 222 225 226 225 224 228 226 223 219 218 217 213 217 226 225 224 223 222 224 223 225 230 235 239 242 248 247 237 231 229 228 232 218 210 203 197 197
219 221 220 219 219 220 224 228 229 229 230 232 231 231 225 216 215 214 217 222 228 233 232 230 229 227 226 231 236 240 248 251 246 242 238 233 229 223 218 202 196 197 199
221 223 225 226 225 225 226 230 232 233 235 235 237 238 233 228 223 219 221 225 230 232 234 235 237 235 234 236 239 244 251 251 250 248 242 233 228 220 210 200 192 196 206
221 224 227 230 231 230 232 234 237 239 240 241 242 241 238 234 235 234 233 232 234 240 243 241 241 241 241 241 242 246 250 263 257 249 240 233 222 211 196 191 199 207 205
221 225 227 230 233 234 235 238 240 242 244 245 245 244 242 239 238 239 240 241 242 245 248 250 248 246 245 245 246 250 253 258 261 246 233 226 214 194 191 185 212 217 212
223 229 230 232 235 236 236 238 240 244 247 249 249 248 247 248 248 248 249 249 249 250 251 252 253 254 254 252 248 245 251 249 255 240 227 230 188 190 194 206 209 213 214
229 231 233 233 234 238 239 241 245 249 251 253 254 256 255 255 254 256 259 262 260 258 257 258 259 257 255 253 249 245 248 244 250 235 218 194 185 186 202 212 215 213 224
234 239 242 241 239 238 241 246 250 255 256 258 259 259 261 262 260 258 259 257 259 261 266 267 264 261 256 252 248 245 246 244 242 230 209 186 172 183 191 214 215 218 226
Wind_Speed_850mb
5 4 5 8 13 17 9 10 17 15 11 13 17 22 27 28 29 28 27 26 27 29 25 23 21 24 34 36 26 33 34 34 38 27 37 48 64 47 62 45 36 24 16
6 6 4 7 13 16 12 10 14 16 15 15 16 18 24 27 27 26 26 26 32 26 23 24 28 25 32 32 28 30 31 32 27 42 39 52 62 56 52 44 25 14 2
10 9 8 7 12 22 24 16 16 16 15 16 18 18 22 26 27 25 21 25 27 21 21 21 25 30 33 29 34 30 31 31 30 39 58 61 61 62 48 31 22 16 13
13 11 10 9 12 15 26 23 21 19 17 18 19 18 19 22 24 26 19 27 29 21 20 25 26 27 29 31 30 30 31 31 38 39 42 44 41 51 39 29 27 17 10
17 14 13 13 17 16 15 17 18 21 21 22 20 21 18 19 20 25 27 34 22 19 21 31 35 32 31 35 37 33 44 50 40 39 37 35 38 40 36 28 23 16 10
24 18 16 18 24 20 16 17 17 17 19 18 23 14 15 19 20 23 39 36 22 23 31 40 37 38 37 44 39 36 44 41 37 32 28 30 33 33 27 20 23 18 8
31 24 17 27 27 23 18 17 17 17 16 17 22 15 14 20 30 23 44 33 31 27 37 31 44 38 46 48 40 37 32 26 20 14 22 25 24 22 22 19 17 11 7
39 32 24 31 29 26 22 19 16 15 15 16 15 15 19 20 30 34 41 41 31 31 34 46 48 37 40 40 38 39 29 25 28 33 33 31 25 22 21 17 12 9 8
45 38 32 28 35 31 25 21 16 12 16 20 20 21 22 31 31 32 41 42 35 35 47 41 41 40 33 30 26 29 32 27 24 21 21 18 16 17 13 11 6 7 9
48 39 35 28 40 36 29 24 18 13 13 17 19 21 22 20 26 29 31 37 46 42 49 47 43 26 19 25 25 26 24 27 25 22 23 18 12 7 4 2 5 9 11
44 41 37 31 40 41 36 30 26 20 14 18 18 19 19 21 22 27 29 37 47 50 43 47 35 26 24 25 23 18 13 13 14 13 10 12 7 3 3 3 7 11 11
51 45 42 38 40 43 41 38 32 26 20 22 25 23 21 22 26 30 31 34 48 43 39 38 35 31 27 25 25 22 21 19 18 17 16 13 11 12 14 14 12 12 11
57 50 46 44 38 44 44 45 41 34 30 30 29 30 29 26 25 28 30 30 30 29 31 35 34 30 28 26 23 22 22 24 23 21 19 16 16 18 18 17 15 10 5
59 54 49 50 48 44 43 44 45 43 38 38 38 33 31 33 32 32 33 34 32 32 34 35 33 31 31 30 31 32 29 26 25 23 20 22 23 24 20 17 16 11 9
62 58 53 53 55 50 45 43 41 43 40 43 44 39 38 36 37 37 36 37 37 37 37 39 41 42 41 40 38 35 33 31 30 29 27 27 28 23 20 17 18 15 12
70 65 59 57 60 59 53 49 46 35 37 36 37 37 35 28 24 34 40 39 37 40 45 46 47 46 44 44 44 41 40 38 37 34 33 33 32 29 27 28 27 18 16
73 68 64 61 60 62 62 56 50 42 39 38 39 43 41 34 32 33 40 46 47 45 53 51 52 54 54 53 53 50 46 44 43 39 39 41 41 35 31 29 29 27 26
74 67 64 64 62 62 63 59 54 47 46 47 48 51 49 43 40 36 40 48 60 61 59 57 57 58 58 56 55 53 51 51 48 44 46 48 45 36 38 36 39 33 26
80 75 71 65 62 61 62 64 60 56 50 45 45 52 55 53 49 51 51 54 59 66 63 63 61 60 59 56 55 55 54 54 51 49 48 50 47 45 43 39 39 34 28
81 75 73 72 69 66 65 68 68 64 58 52 47 48 54 62 65 68 67 64 64 64 67 68 69 67 66 63 60 59 61 62 60 59 57 55 51 48 40 40 40 31 25
79 80 79 77 75 71 68 67 67 68 65 60 51 46 51 60 70 76 76 74 73 71 68 72 76 75 72 70 67 64 64 67 68 69 67 65 62 56 45 49 44 35 30
72 72 76 78 77 77 75 70 67 66 66 65 56 49 49 59 64 72 77 78 76 74 71 69 70 75 77 81 80 76 71 65 77 79 74 69 63 55 56 50 32 34 27
67 67 70 73 73 74 74 70 67 66 67 66 62 57 56 57 62 66 70 76 80 78 74 73 75 74 75 81 85 74 79 74 79 78 77 72 65 59 54 40 38 36 27
57 61 64 64 64 65 68 69 68 67 66 65 65 63 59 59 62 61 61 64 68 73 80 83 81 80 80 83 80 79 83 85 73 80 83 74 68 59 43 38 42 35 25
61 62 64 62 61 58 61 64 65 67 70 72 71 70 65 61 63 62 64 65 66 69 74 78 81 82 84 87 89 95 96 89 73 79 82 73 67 56 42 46 43 33 24
47 51 61 68 67 65 65 61 59 60 61 61 64 67 68 63 61 60 65 65 63 65 67 72 77 80 82 88 96 95 84 78 71 75 79 76 71 55 56 50 43 32 24
Wind_Direction_850mb
171 138 68 43 40 38 62 78 80 94 102 122 139 166 174 173 171 171 173 181 187 187 199 207 201 201 200 213 206 211 205 197 171 148 166 172 169 175 163 162 162 163 173
173 171 135 73 64 41 73 102 91 96 102 122 144 152 167 172 170 176 176 176 173 180 194 202 201 196 194 196 196 195 200 195 180 171 169 165 176 171 164 165 165 174 162
176 171 159 108 82 69 73 96 105 105 113 122 124 144 157 161 164 171 174 177 181 185 180 185 187 179 177 180 175 187 182 171 183 181 167 165 178 172 178 191 200 218 269
171 165 164 142 130 98 84 89 98 97 103 127 131 132 154 162 162 164 165 160 155 172 191 191 186 182 184 174 179 191 189 167 156 150 159 158 158 170 185 198 214 237 232
177 173 167 164 149 135 107 93 94 85 89 116 135 143 139 162 163 171 166 152 146 146 151 162 156 157 161 160 153 137 144 144 149 147 151 163 178 187 193 198 206 214 205
189 177 166 169 155 145 135 118 104 90 73 96 125 142 170 170 168 181 173 174 155 130 141 149 154 152 152 146 157 146 141 147 144 148 149 158 163 171 176 182 182 190 192
193 183 170 172 161 154 151 127 109 95 78 90 120 116 126 166 170 151 172 170 162 143 146 139 142 128 127 131 136 138 138 140 152 147 155 167 163 162 161 158 161 160 187
194 190 181 181 176 171 168 151 128 98 96 106 124 98 109 117 164 164 159 165 152 137 139 144 143 135 136 139 144 136 143 141 126 110 112 118 128 135 133 144 157 197 269
196 194 188 186 185 180 175 166 149 122 112 114 104 112 123 109 125 171 191 192 178 165 168 161 155 141 134 138 137 143 141 130 127 136 139 139 143 163 172 185 208 265 279
198 194 191 189 190 183 185 181 169 147 130 136 122 111 116 129 123 119 133 162 173 172 167 157 156 160 155 149 142 148 141 133 127 135 145 155 168 186 182 323 320 312 307
195 195 188 192 192 192 193 193 184 177 163 162 158 141 127 124 135 141 144 157 160 161 173 179 178 170 166 167 160 148 149 161 169 169 174 198 205 223 238 285 283 281 268
196 194 189 191 190 192 197 196 197 197 189 173 176 166 156 150 141 135 138 154 165 164 166 167 171 172 174 176 179 187 196 207 215 211 205 202 217 247 264 276 278 264 256
197 195 191 194 189 190 194 197 198 204 206 191 181 183 179 171 164 162 155 155 163 176 176 174 176 179 180 184 189 196 199 205 203 204 213 230 244 248 243 235 237 249 268
198 196 193 196 197 193 195 201 204 205 208 206 196 190 190 192 189 184 181 180 178 177 181 182 186 193 197 195 192 194 197 201 214 228 243 244 229 214 219 242 256 225 220
200 198 194 197 204 203 204 203 208 216 217 211 207 203 200 203 205 202 196 192 192 194 195 198 201 203 202 199 198 202 209 219 232 241 242 231 216 211 221 234 234 227 214
202 201 200 199 207 210 211 211 215 217 220 224 225 216 212 216 214 214 210 207 209 209 209 211 211 210 209 207 208 212 219 229 240 245 239 230 222 217 222 215 213 201 199
207 204 204 204 209 215 216 216 215 213 213 217 220 222 221 215 212 215 214 212 213 215 216 217 216 214 212 213 217 223 230 238 242 237 228 223 216 222 219 212 208 200 185
213 213 208 207 208 216 221 222 221 219 214 215 214 217 221 222 219 219 215 216 216 217 218 219 219 218 219 221 224 229 235 238 241 230 225 222 222 227 222 217 201 195 195
215 215 214 214 214 216 222 225 226 225 224 228 226 223 219 218 217 213 217 226 225 224 223 222 224 223 225 230 235 239 242 248 247 237 231 229 228 232 218 210 203 197 197
219 221 220 219 219 220 224 228 229 229 230 232 231 231 225 216 215 214 217 222 228 233 232 230 229 227 226 231 236 240 248 251 246 242 238 233 229 223 218 202 196 197 199
221 223 225 226 225 225 226 230 232 233 235 235 237 238 233 228 223 219 221 225 230 232 234 235 237 235 234 236 239 244 251 251 250 248 242 233 228 220 210 200 192 196 206
221 224 227 230 231 230 232 234 237 239 240 241 242 241 238 234 235 234 233 232 234 240 243 241 241 241 241 241 242 246 250 263 257 249 240 233 222 211 196 191 199 207 205
221 225 227 230 233 234 235 238 240 242 244 245 245 244 242 239 238 239 240 241 242 245 248 250 248 246 245 245 246 250 253 258 261 246 233 226 214 194 191 185 212 217 212
223 229 230 232 235 236 236 238 240 244 247 249 249 248 247 248 248 248 249 249 249 250 251 252 253 254 254 252 248 245 251 249 255 240 227 230 188 190 194 206 209 213 214
229 231 233 233 234 238 239 241 245 249 251 253 254 256 255 255 254 256 259 262 260 258 257 258 259 257 255 253 249 245 248 244 250 235 218 194 185 186 202 212 215 213 224
234 239 242 241 239 238 241 246 250 255 256 258 259 259 261 262 260 258 259 257 259 261 266 267 264 261 256 252 248 245 246 244 242 230 209 186 172 183 191 214 215 218 226